Find Kosmos-2067

NORAD ID: 20552 Int'l Des: 1990-029 Owner: UNKS Country: SU operational
LEOCIRCULAR

Live Position

Loading 3D Globe...

About Kosmos-2067

Description loading...

Upcoming Passes

Passes for default location (London). Set your location on the main map for personalized predictions.

Altitude History

Loading altitude history...

Two-Line Element Set

1 20552U 90029D 26106.69019044 -.00000014 00000-0 16209-4 0 9990
2 20552 73.9789 93.8699 0040773 253.4222 280.8139 12.57937210654467
Epoch: Apr 16, 2026 • Age: 9 hours

Current Status

Altitude 1463.7 km
Velocity 7.13 km/s
Sub-Earth Point 58.79°N, 12.89°E
Launch Date Apr 6, 1990
Age 36 years
Type other

Technical Details

Classification Payload
Mass 60.00 kg
Dry Mass 60.00 kg
Total Mass 60.00 kg
Length 0.80 m
Diameter 0.80 m
Span 0.80 m
Shape Poly
Manufacturer NPOPM
Bus Type Strela-1 11F625
Phase Status In Orbit
Owner/State UNKS/SU

Most Searched